• In Latvia
  • List of Countries
  • For 7 days
  • Water Temperature
  • Satellite Maps
  • Weather Map
  • Weather Widgets
  • user-avatar
    Login

    Hourly Weather Volnovaha

    Today, 24 June, Sunday

    Time Temperature Precipitation Wind Pressure Humidity
    00:00 +21°C° 0.3 mm 2 mps 732 mmHg 84%
    01:00 +21°C° 0.3 mm 2 mps 732 mmHg 87%
    02:00 +20°C° 0.3 mm 3 mps 732 mmHg 89%
    03:00 +20°C° 0.6 mm 3 mps 733 mmHg 89%
    04:00 +20°C° 0.6 mm 4 mps 733 mmHg 89%
    05:00 +20°C° 0.6 mm 4 mps 733 mmHg 89%
    06:00 +20°C° 0.4 mm 5 mps 734 mmHg 87%
    07:00 +20°C° 0.4 mm 5 mps 734 mmHg 85%
    08:00 +19°C° 0.4 mm 6 mps 735 mmHg 84%
    09:00 +20°C° 0.1 mm 6 mps 735 mmHg 78%
    10:00 +21°C° 0.1 mm 6 mps 736 mmHg 73%
    11:00 +22°C° 0.1 mm 6 mps 736 mmHg 67%
    12:00 +22°C° 0 mm 5 mps 736 mmHg 63%
    13:00 +23°C° 0 mm 5 mps 737 mmHg 58%
    14:00 +25°C° 0 mm 5 mps 737 mmHg 54%
    15:00 +25°C° 0 mm 4 mps 737 mmHg 53%
    16:00 +23°C° 0 mm 4 mps 737 mmHg 53%
    17:00 +23°C° 0 mm 4 mps 737 mmHg 52%
    18:00 +22°C° 0 mm 3 mps 738 mmHg 57%
    19:00 +20°C° 0 mm 3 mps 738 mmHg 62%
    20:00 +18°C° 0 mm 3 mps 738 mmHg 66%
    21:00 +18°C° 0 mm 3 mps 738 mmHg 69%
    22:00 +17°C° 0 mm 2 mps 738 mmHg 71%
    23:00 +16°C° 0 mm 2 mps 739 mmHg 73%

    Tomorrow, 25 June, Monday

    Time Temperature Precipitation Wind Pressure Humidity
    00:00 +16°C° 0 mm 2 mps 739 mmHg 75%
    01:00 +15°C° 0 mm 2 mps 739 mmHg 77%
    02:00 +14°C° 0 mm 3 mps 739 mmHg 79%
    03:00 +15°C° 0 mm 2 mps 739 mmHg 79%
    04:00 +16°C° 0 mm 2 mps 739 mmHg 79%
    05:00 +16°C° 0 mm 2 mps 740 mmHg 78%
    06:00 +17°C° 0 mm 3 mps 740 mmHg 71%
    07:00 +19°C° 0 mm 3 mps 740 mmHg 64%
    08:00 +21°C° 0 mm 3 mps 740 mmHg 57%
    09:00 +22°C° 0 mm 3 mps 740 mmHg 53%
    10:00 +24°C° 0 mm 3 mps 741 mmHg 48%
    11:00 +25°C° 0 mm 3 mps 741 mmHg 44%
    12:00 +25°C° 0 mm 3 mps 741 mmHg 42%
    13:00 +26°C° 0 mm 3 mps 740 mmHg 41%
    14:00 +27°C° 0 mm 3 mps 740 mmHg 39%
    15:00 +26°C° 0 mm 3 mps 740 mmHg 41%
    16:00 +26°C° 0 mm 4 mps 740 mmHg 43%
    17:00 +26°C° 0 mm 4 mps 740 mmHg 45%
    18:00 +23°C° 0 mm 4 mps 740 mmHg 50%
    19:00 +21°C° 0 mm 4 mps 740 mmHg 54%
    20:00 +20°C° 0 mm 4 mps 740 mmHg 59%
    21:00 +19°C° 0 mm 4 mps 740 mmHg 60%
    22:00 +19°C° 0 mm 4 mps 740 mmHg 60%
    23:00 +18°C° 0 mm 4 mps 740 mmHg 61%

    Day after tomorrow, 26 June, Tuesday

    Time Temperature Precipitation Wind Pressure Humidity
    00:00 +18°C° 0.1 mm 4 mps 740 mmHg 63%
    01:00 +17°C° 0.1 mm 5 mps 740 mmHg 65%
    02:00 +16°C° 0.1 mm 5 mps 740 mmHg 67%
    03:00 +16°C° 0 mm 5 mps 740 mmHg 67%
    04:00 +16°C° 0 mm 5 mps 740 mmHg 68%
    05:00 +17°C° 0 mm 5 mps 740 mmHg 69%
    06:00 +19°C° 0 mm 6 mps 740 mmHg 65%
    07:00 +21°C° 0 mm 6 mps 740 mmHg 61%
    08:00 +23°C° 0 mm 6 mps 740 mmHg 57%
    09:00 +24°C° 0 mm 6 mps 739 mmHg 55%
    10:00 +27°C° 0 mm 6 mps 739 mmHg 53%
    11:00 +28°C° 0 mm 6 mps 739 mmHg 51%
    12:00 +29°C° 0 mm 6 mps 739 mmHg 50%
    13:00 +30°C° 0 mm 6 mps 738 mmHg 49%
    14:00 +32°C° 0 mm 6 mps 738 mmHg 47%
    15:00 +30°C° 0 mm 6 mps 738 mmHg 49%
    16:00 +30°C° 0 mm 6 mps 738 mmHg 50%
    17:00 +30°C° 0 mm 7 mps 737 mmHg 52%
    18:00 +28°C° 0.2 mm 6 mps 737 mmHg 57%
    19:00 +26°C° 0.2 mm 6 mps 737 mmHg 63%
    20:00 +24°C° 0.2 mm 6 mps 737 mmHg 69%
    21:00 +23°C° 0.3 mm 6 mps 736 mmHg 70%
    22:00 +23°C° 0.3 mm 6 mps 736 mmHg 71%
    23:00 +22°C° 0.3 mm 6 mps 736 mmHg 72%

    27 June, Wednesday

    Time Temperature Precipitation Wind Pressure Humidity
    00:00 +22°C° 0.2 mm 6 mps 736 mmHg 74%
    01:00 +22°C° 0.2 mm 6 mps 736 mmHg 76%
    02:00 +21°C° 0.2 mm 6 mps 735 mmHg 77%
    03:00 +22°C° 0 mm 5 mps 735 mmHg 77%
    04:00 +22°C° 0 mm 5 mps 735 mmHg 78%
    05:00 +22°C° 0 mm 5 mps 735 mmHg 78%
    06:00 +25°C° 0 mm 5 mps 735 mmHg 68%
    07:00 +27°C° 0 mm 5 mps 735 mmHg 58%
    08:00 +29°C° 0 mm 5 mps 735 mmHg 48%
    09:00 +32°C° 0 mm 5 mps 735 mmHg 41%
    10:00 +34°C° 0 mm 5 mps 735 mmHg 34%
    11:00 +36°C° 0 mm 6 mps 735 mmHg 27%
    12:00 +38°C° 0 mm 6 mps 735 mmHg 26%
    13:00 +38°C° 0 mm 6 mps 735 mmHg 26%
    14:00 +39°C° 0 mm 6 mps 735 mmHg 25%
    15:00 +37°C° 0 mm 5 mps 735 mmHg 27%
    16:00 +37°C° 0 mm 5 mps 734 mmHg 30%
    17:00 +36°C° 0 mm 4 mps 734 mmHg 32%
    18:00 +34°C° 0 mm 4 mps 734 mmHg 36%
    19:00 +32°C° 0 mm 4 mps 734 mmHg 40%
    20:00 +29°C° 0 mm 4 mps 734 mmHg 44%
    21:00 +29°C° 0 mm 4 mps 734 mmHg 46%
    22:00 +28°C° 0 mm 4 mps 734 mmHg 48%
    23:00 +27°C° 0 mm 4 mps 734 mmHg 50%

    28 June, Thursday

    Time Temperature Precipitation Wind Pressure Humidity
    00:00 +27°C° 0 mm 4 mps 734 mmHg 52%
    01:00 +26°C° 0 mm 4 mps 734 mmHg 54%
    02:00 +25°C° 0 mm 4 mps 734 mmHg 56%
    03:00 +25°C° 0 mm 3 mps 734 mmHg 57%
    04:00 +25°C° 0 mm 3 mps 734 mmHg 58%
    05:00 +25°C° 0 mm 3 mps 734 mmHg 59%
    06:00 +27°C° 0 mm 3 mps 734 mmHg 53%
    07:00 +29°C° 0 mm 3 mps 735 mmHg 47%
    08:00 +31°C° 0 mm 3 mps 735 mmHg 41%
    09:00 +34°C° 0 mm 4 mps 735 mmHg 38%
    10:00 +35°C° 0 mm 4 mps 735 mmHg 35%
    11:00 +37°C° 0 mm 4 mps 735 mmHg 32%
    12:00 +37°C° 0 mm 4 mps 735 mmHg 31%
    13:00 +38°C° 0 mm 4 mps 735 mmHg 31%
    14:00 +38°C° 0 mm 4 mps 735 mmHg 30%
    15:00 +38°C° 0 mm 4 mps 735 mmHg 32%
    16:00 +37°C° 0 mm 4 mps 734 mmHg 34%
    17:00 +37°C° 0 mm 3 mps 734 mmHg 36%
    18:00 +35°C° 0.1 mm 3 mps 734 mmHg 40%
    19:00 +32°C° 0.1 mm 2 mps 734 mmHg 45%
    20:00 +29°C° 0.1 mm 1 mps 734 mmHg 50%
    21:00 +29°C° 0.2 mm 1 mps 734 mmHg 52%
    22:00 +28°C° 0.2 mm 1 mps 734 mmHg 55%
    23:00 +27°C° 0.2 mm 1 mps 734 mmHg 57%

    29 June, Friday

    Time Temperature Precipitation Wind Pressure Humidity
    00:00 +26°C° 0.2 mm 2 mps 733 mmHg 58%
    01:00 +26°C° 0.2 mm 2 mps 733 mmHg 59%
    02:00 +25°C° 0.2 mm 2 mps 733 mmHg 60%
    03:00 +25°C° 0.1 mm 2 mps 733 mmHg 60%
    04:00 +25°C° 0.1 mm 3 mps 733 mmHg 59%
    05:00 +25°C° 0.1 mm 3 mps 733 mmHg 58%
    06:00 +27°C° 0.3 mm 3 mps 733 mmHg 54%
    07:00 +28°C° 0.3 mm 3 mps 733 mmHg 51%
    08:00 +30°C° 0.3 mm 4 mps 733 mmHg 47%
    09:00 +32°C° 0.1 mm 4 mps 733 mmHg 42%
    10:00 +34°C° 0.1 mm 5 mps 733 mmHg 38%
    11:00 +36°C° 0.1 mm 5 mps 733 mmHg 33%
    12:00 +37°C° 0 mm 5 mps 733 mmHg 31%
    13:00 +37°C° 0 mm 5 mps 733 mmHg 30%
    14:00 +38°C° 0 mm 4 mps 733 mmHg 28%
    15:00 +38°C° 0 mm 4 mps 732 mmHg 29%
    16:00 +38°C° 0 mm 3 mps 732 mmHg 31%
    17:00 +38°C° 0 mm 3 mps 732 mmHg 32%
    18:00 +35°C° 0.1 mm 3 mps 732 mmHg 38%
    19:00 +32°C° 0.1 mm 2 mps 732 mmHg 44%
    20:00 +30°C° 0.1 mm 2 mps 731 mmHg 50%
    21:00 +29°C° 0.1 mm 2 mps 731 mmHg 53%
    22:00 +28°C° 0.1 mm 2 mps 731 mmHg 57%
    23:00 +27°C° 0.1 mm 2 mps 731 mmHg 61%
    Show more